SCP
0 0 0 0 0 0 0 0 0 -0 -0 -0 0 0 0 1 2 3 4 5 3 3 2 2 2 2 1 1 1 1 0 0
0 0 0 0 0 0 0 -0 0 0 -0 -0 -0 0 0 0 0 1 2 3 5 4 3 2 2 2 2 1 1 1 1 0
0 0 0 0 0 0 0 0 0 0 -0 -0 -0 -0 0 0 0 0 2 1 3 4 4 3 3 2 2 2 1 1 1 1
0 0 0 0 0 0 0 0 0 0 0 -0 -0 -0 -0 -0 0 0 1 1 3 2 2 5 3 3 2 2 2 2 1 1
0 -0 0 0 0 0 0 0 0 0 0 0 0 -0 -0 -0 -0 0 0 1 2 3 3 4 4 3 2 2 2 1 1 1
-0 -0 0 0 0 0 0 0 0 0 0 0 0 0 -0 -0 -0 0 0 0 1 3 3 4 4 3 2 2 2 1 1 1
-0 0 0 0 0 0 0 0 0 0 0 0 0 0 -0 0 0 -0 -0 0 1 2 4 4 4 3 2 2 2 1 1 1
0 0 0 -0 -0 0 0 0 0 0 0 0 0 0 0 -0 0 -0 0 0 0 0 0 1 1 3 2 2 2 2 1 1
0 0 -0 0 -0 0 0 0 0 0 0 0 0 0 0 0 0 0 0 0 0 0 -0 0 0 0 2 1 2 2 2 1
0 0 0 0 0 0 0 0 0 0 0 0 0 0 0 0 0 0 0 0 0 0 0 0 0 0 0 0 2 1 2 1
0 0 0 0 0 0 0 0 0 -0 -0 -0 -0 0 0 0 0 0 0 0 0 0 0 0 0 0 0 0 0 0 0 0
0 0 0 0 0 0 0 0 0 0 -0 -0 -0 -0 0 0 0 0 0 0 0 0 0 0 0 0 0 0 0 0 0 0
0 0 0 0 0 0 0 0 -0 0 -0 -0 -0 0 -0 0 0 0 0 0 0 0 0 0 0 0 0 0 0 0 0 0
-0 0 0 0 0 -0 0 -0 -0 0 0 -0 -0 -0 -0 0 0 0 0 0 0 0 0 0 0 0 0 0 0 0 0 0
-0 0 0 0 0 0 -0 0 -0 -0 -0 -0 -0 -0 -0 -0 0 0 0 0 0 0 0 0 0 0 0 0 0 0 0 0
0 0 0 0 0 0 0 -0 -0 -0 -0 -0 -0 -0 -0 -0 0 0 0 0 0 0 0 0 0 0 0 0 0 0 0 0
0 0 0 -0 0 -0 -0 -0 -0 -0 -0 0 -0 -0 -0 -0 0 0 0 0 0 0 0 0 0 0 0 0 0 0 0 0
0 -0 -0 0 0 -0 -0 0 0 -0 -0 -0 -0 -0 -0 -0 -0 0 0 0 0 0 0 0 0 0 0 0 0 0 0 0
-0 -0 -0 -0 -0 -0 -0 0 0 0 0 0 0 -0 -0 -0 -0 -0 0 0 0 0 0 0 0 0 0 0 0 0 0 0
Wind_Speed_500mb
66 70 74 78 76 77 79 70 74 83 86 75 68 59 48 69 81 79 82 81 75 71 77 68 66 59 63 64 58 59 61 52
63 70 73 80 81 74 75 78 65 74 87 84 78 77 68 54 66 77 82 87 91 90 88 79 72 70 70 70 63 57 60 55
71 73 77 84 91 83 76 76 71 61 74 79 80 81 85 83 57 60 72 109 96 95 95 95 87 82 73 75 70 65 59 58
66 74 84 85 87 80 78 74 74 61 61 73 79 84 85 99 90 66 79 99 102 90 84 108 97 89 87 79 79 77 74 71
65 73 81 83 77 77 69 66 65 60 52 68 69 75 75 85 95 84 82 83 97 95 94 96 120 101 96 90 79 76 72 78
67 68 77 77 72 71 67 65 57 52 45 59 62 62 68 78 83 84 76 78 95 104 100 93 109 97 101 98 98 77 82 74
61 63 70 69 67 65 61 59 55 51 45 49 45 52 63 65 69 65 76 76 88 102 110 100 93 99 88 87 87 83 84 77
59 64 71 70 68 64 60 57 51 41 35 38 38 41 48 48 50 50 63 25 47 59 42 99 84 86 84 81 74 70 74 70
54 57 65 68 67 67 64 59 56 43 33 29 25 24 28 24 42 46 54 40 39 23 53 38 49 72 73 74 66 69 65 54
52 59 64 68 70 68 68 60 61 60 45 33 23 14 11 17 26 40 10 37 28 48 32 12 32 37 27 81 72 60 62 51
53 57 63 67 70 68 66 57 67 71 64 48 41 33 26 31 39 35 25 25 20 30 41 1 15 11 88 27 17 22 38 37
49 56 63 68 71 71 70 64 64 83 63 62 57 47 48 65 66 57 45 33 32 16 18 12 7 16 11 12 14 14 19 28
45 54 66 69 73 75 75 73 60 74 75 68 65 59 67 100 93 89 74 59 57 58 35 10 9 4 11 4 3 11 15 23
44 53 66 71 71 72 71 72 68 71 69 77 83 86 98 96 91 84 79 74 66 55 50 43 34 33 22 16 14 13 18 18
38 47 59 67 66 70 72 71 67 73 75 79 88 95 96 100 94 85 79 75 72 61 59 57 50 43 41 34 27 26 26 24
42 42 52 57 63 64 67 67 67 73 78 80 87 87 89 94 97 95 90 87 86 81 68 56 56 55 50 43 38 35 31 31
43 38 45 49 59 60 67 69 72 75 73 70 74 75 81 86 85 86 87 86 84 82 76 70 67 66 55 53 50 50 45 41
38 40 39 41 46 56 57 69 68 72 79 76 76 75 77 79 77 79 79 79 75 72 69 67 66 63 55 51 48 44 49 48
29 36 40 38 38 49 55 55 66 68 73 78 76 76 74 72 77 78 76 72 71 74 71 69 64 65 57 55 53 54 50 49
Wind_Direction_500mb
338 330 326 321 315 308 302 289 282 281 286 287 284 280 265 240 246 236 231 230 228 226 221 222 221 226 220 223 225 223 226 226
344 339 332 326 322 316 309 306 288 281 279 286 280 279 281 249 241 244 237 235 233 229 221 217 219 221 219 219 218 219 222 222
346 343 337 334 328 327 320 316 310 293 289 285 284 277 273 277 265 243 233 239 229 230 221 217 217 221 217 217 221 222 223 219
348 345 342 336 332 329 325 322 316 309 292 285 281 278 272 272 272 261 238 239 230 230 229 220 217 221 221 216 218 224 224 219
352 347 343 340 333 329 328 326 320 316 304 291 289 285 282 268 267 266 246 244 238 233 232 223 223 216 220 222 220 217 219 218
355 349 346 343 339 340 338 331 323 315 303 294 295 295 284 274 266 266 268 249 238 231 225 224 224 218 218 222 221 217 220 224
354 353 351 350 352 350 345 340 333 320 306 299 297 288 284 283 269 272 266 263 240 239 225 221 219 221 221 221 222 222 222 225
358 358 358 1 359 359 356 351 345 331 318 305 303 286 276 271 266 245 247 231 235 244 206 200 204 223 228 225 226 226 223 224
2 4 6 8 7 7 6 5 9 357 345 338 313 281 251 248 242 225 217 244 246 338 306 144 185 203 223 234 224 226 226 230
9 13 15 13 14 14 17 13 19 22 19 8 1 342 191 145 173 206 232 229 215 233 263 291 171 191 244 245 223 218 227 236
16 18 19 19 22 22 26 21 26 27 32 35 38 34 93 96 128 138 90 97 168 151 216 231 167 210 237 306 127 196 217 236
19 22 24 24 29 30 33 37 28 32 32 37 38 39 68 82 100 112 104 88 93 136 117 181 33 187 234 208 194 230 245 245
25 29 29 28 32 34 38 45 41 38 42 46 41 37 56 81 86 88 92 92 97 95 105 155 32 69 55 54 8 276 281 259
26 32 32 28 33 38 40 46 51 51 49 50 48 48 55 75 78 83 87 79 78 79 82 81 65 58 38 16 0 324 320 312
30 39 37 29 31 38 42 43 48 50 54 53 57 55 58 69 74 78 83 81 84 81 77 77 76 75 72 66 59 45 31 18
38 44 41 29 30 41 47 50 48 49 52 52 54 62 60 65 68 70 72 71 72 73 76 75 73 70 67 72 69 64 61 44
43 48 48 39 27 35 43 46 50 52 57 60 61 60 61 61 65 66 65 64 64 67 67 66 68 64 59 58 56 53 49 49
46 44 51 50 36 36 42 45 47 52 52 53 55 58 61 62 62 64 64 63 62 63 60 57 59 58 50 49 46 44 40 38
56 47 55 53 53 39 44 48 47 49 52 50 51 54 57 59 60 60 59 58 56 55 54 51 49 51 46 45 41 38 33 29
Wind_Speed_850mb
66 70 74 78 76 77 79 70 74 83 86 75 68 59 48 69 81 79 82 81 75 71 77 68 66 59 63 64 58 59 61 52
63 70 73 80 81 74 75 78 65 74 87 84 78 77 68 54 66 77 82 87 91 90 88 79 72 70 70 70 63 57 60 55
71 73 77 84 91 83 76 76 71 61 74 79 80 81 85 83 57 60 72 109 96 95 95 95 87 82 73 75 70 65 59 58
66 74 84 85 87 80 78 74 74 61 61 73 79 84 85 99 90 66 79 99 102 90 84 108 97 89 87 79 79 77 74 71
65 73 81 83 77 77 69 66 65 60 52 68 69 75 75 85 95 84 82 83 97 95 94 96 120 101 96 90 79 76 72 78
67 68 77 77 72 71 67 65 57 52 45 59 62 62 68 78 83 84 76 78 95 104 100 93 109 97 101 98 98 77 82 74
61 63 70 69 67 65 61 59 55 51 45 49 45 52 63 65 69 65 76 76 88 102 110 100 93 99 88 87 87 83 84 77
59 64 71 70 68 64 60 57 51 41 35 38 38 41 48 48 50 50 63 25 47 59 42 99 84 86 84 81 74 70 74 70
54 57 65 68 67 67 64 59 56 43 33 29 25 24 28 24 42 46 54 40 39 23 53 38 49 72 73 74 66 69 65 54
52 59 64 68 70 68 68 60 61 60 45 33 23 14 11 17 26 40 10 37 28 48 32 12 32 37 27 81 72 60 62 51
53 57 63 67 70 68 66 57 67 71 64 48 41 33 26 31 39 35 25 25 20 30 41 1 15 11 88 27 17 22 38 37
49 56 63 68 71 71 70 64 64 83 63 62 57 47 48 65 66 57 45 33 32 16 18 12 7 16 11 12 14 14 19 28
45 54 66 69 73 75 75 73 60 74 75 68 65 59 67 100 93 89 74 59 57 58 35 10 9 4 11 4 3 11 15 23
44 53 66 71 71 72 71 72 68 71 69 77 83 86 98 96 91 84 79 74 66 55 50 43 34 33 22 16 14 13 18 18
38 47 59 67 66 70 72 71 67 73 75 79 88 95 96 100 94 85 79 75 72 61 59 57 50 43 41 34 27 26 26 24
42 42 52 57 63 64 67 67 67 73 78 80 87 87 89 94 97 95 90 87 86 81 68 56 56 55 50 43 38 35 31 31
43 38 45 49 59 60 67 69 72 75 73 70 74 75 81 86 85 86 87 86 84 82 76 70 67 66 55 53 50 50 45 41
38 40 39 41 46 56 57 69 68 72 79 76 76 75 77 79 77 79 79 79 75 72 69 67 66 63 55 51 48 44 49 48
29 36 40 38 38 49 55 55 66 68 73 78 76 76 74 72 77 78 76 72 71 74 71 69 64 65 57 55 53 54 50 49
Wind_Direction_850mb
338 330 326 321 315 308 302 289 282 281 286 287 284 280 265 240 246 236 231 230 228 226 221 222 221 226 220 223 225 223 226 226
344 339 332 326 322 316 309 306 288 281 279 286 280 279 281 249 241 244 237 235 233 229 221 217 219 221 219 219 218 219 222 222
346 343 337 334 328 327 320 316 310 293 289 285 284 277 273 277 265 243 233 239 229 230 221 217 217 221 217 217 221 222 223 219
348 345 342 336 332 329 325 322 316 309 292 285 281 278 272 272 272 261 238 239 230 230 229 220 217 221 221 216 218 224 224 219
352 347 343 340 333 329 328 326 320 316 304 291 289 285 282 268 267 266 246 244 238 233 232 223 223 216 220 222 220 217 219 218
355 349 346 343 339 340 338 331 323 315 303 294 295 295 284 274 266 266 268 249 238 231 225 224 224 218 218 222 221 217 220 224
354 353 351 350 352 350 345 340 333 320 306 299 297 288 284 283 269 272 266 263 240 239 225 221 219 221 221 221 222 222 222 225
358 358 358 1 359 359 356 351 345 331 318 305 303 286 276 271 266 245 247 231 235 244 206 200 204 223 228 225 226 226 223 224
2 4 6 8 7 7 6 5 9 357 345 338 313 281 251 248 242 225 217 244 246 338 306 144 185 203 223 234 224 226 226 230
9 13 15 13 14 14 17 13 19 22 19 8 1 342 191 145 173 206 232 229 215 233 263 291 171 191 244 245 223 218 227 236
16 18 19 19 22 22 26 21 26 27 32 35 38 34 93 96 128 138 90 97 168 151 216 231 167 210 237 306 127 196 217 236
19 22 24 24 29 30 33 37 28 32 32 37 38 39 68 82 100 112 104 88 93 136 117 181 33 187 234 208 194 230 245 245
25 29 29 28 32 34 38 45 41 38 42 46 41 37 56 81 86 88 92 92 97 95 105 155 32 69 55 54 8 276 281 259
26 32 32 28 33 38 40 46 51 51 49 50 48 48 55 75 78 83 87 79 78 79 82 81 65 58 38 16 0 324 320 312
30 39 37 29 31 38 42 43 48 50 54 53 57 55 58 69 74 78 83 81 84 81 77 77 76 75 72 66 59 45 31 18
38 44 41 29 30 41 47 50 48 49 52 52 54 62 60 65 68 70 72 71 72 73 76 75 73 70 67 72 69 64 61 44
43 48 48 39 27 35 43 46 50 52 57 60 61 60 61 61 65 66 65 64 64 67 67 66 68 64 59 58 56 53 49 49
46 44 51 50 36 36 42 45 47 52 52 53 55 58 61 62 62 64 64 63 62 63 60 57 59 58 50 49 46 44 40 38
56 47 55 53 53 39 44 48 47 49 52 50 51 54 57 59 60 60 59 58 56 55 54 51 49 51 46 45 41 38 33 29